This is the latest recevied weather packets stored in our database for station/object KD0MAC. If no packets are shown the sender has not sent any weather packets the latest 10 day(s).
| Time | Temp. | Humidity | Pressure | Rain* | Wind** | Luminosity | Snow |
|---|---|---|---|---|---|---|---|
| 1777686997 | 11.67° C | 57% | 1017.9 hPa | 0 mm | - | 0 W/m² | - |
| 1777686694 | 11.67° C | 56% | 1017.6 hPa | 0 mm | - | 0 W/m² | - |
| 1777686393 | 12.22° C | 55% | 1017.6 hPa | 0 mm | - | 1 W/m² | - |
| 1777686093 | 12.22° C | 53% | 1017.6 hPa | 0 mm | - | 2 W/m² | - |
| 1777685793 | 12.78° C | 51% | 1017.6 hPa | 0 mm | - | 3 W/m² | - |
| 1777685493 | 13.33° C | 49% | 1017.6 hPa | 0 mm | - | 5 W/m² | - |
| 1777684904 | 13.89° C | 47% | 1017.6 hPa | 0 mm | - | 11 W/m² | - |
| 1777684594 | 14.44° C | 46% | 1017.6 hPa | 0 mm | - | 15 W/m² | - |
| 1777684293 | 14.44° C | 46% | 1017.6 hPa | 0 mm | - | 19 W/m² | - |
| 1777683994 | 15° C | 45% | 1017.3 hPa | 0 mm | - | 23 W/m² | - |
| 1777683699 | 15° C | 44% | 1017.3 hPa | 0 mm | - | 22 W/m² | - |
| 1777683394 | 15.56° C | 43% | 1017.3 hPa | 0 mm | - | 26 W/m² | - |
| 1777683094 | 15.56° C | 42% | 1017.3 hPa | 0 mm | - | 29 W/m² | - |
| 1777682794 | 16.11° C | 42% | 1017.3 hPa | 0 mm | - | 34 W/m² | - |
| 1777682493 | 16.11° C | 41% | 1017.3 hPa | 0 mm | - | 41 W/m² | - |
| 1777682194 | 16.11° C | 40% | 1017.3 hPa | 0 mm | - | 51 W/m² | - |
| 1777681894 | 16.67° C | 39% | 1016.9 hPa | 0 mm | - | 61 W/m² | - |
| 1777681593 | 16.67° C | 39% | 1016.9 hPa | 0 mm | - | 67 W/m² | - |
| 1777681294 | 17.22° C | 38% | 1016.9 hPa | 0 mm | - | 77 W/m² | - |
| 1777680995 | 17.22° C | 38% | 1016.9 hPa | 0 mm | - | 89 W/m² | - |
| 1777680693 | 17.22° C | 37% | 1016.9 hPa | 0 mm | - | 98 W/m² | - |
| 1777680394 | 17.78° C | 37% | 1016.9 hPa | 0 mm | - | 104 W/m² | - |
| 1777680094 | 17.78° C | 37% | 1016.6 hPa | 0 mm | - | 111 W/m² | - |
| 1777679794 | 17.78° C | 38% | 1016.9 hPa | 0 mm | - | 116 W/m² | - |
| 1777679493 | 17.22° C | 39% | 1016.6 hPa | 0 mm | - | 106 W/m² | - |
* Rain latest hour (hover to see other rain measurements)
** Current wind speed in m/s (hover to see current wind gust speed)